Location: Fours
(44.3167°N, 6.7000°E)
Time: 09:41:17
(UTC+00:00)

Cosmos 44 - Pass Details

Date: 30 November 2020
Orbit: 574 x 788 km, 65.1° (Epoch: 25 January)

Event Time Altitude Azimuth Distance (km) Brightness Sun altitude
Rises 17:04:12 0° 322° (NW) 3,212 7.0 -12.0°
Reaches altitude 10° 17:06:35 10° 320° (NW) 2,306 6.3 -12.4°
Maximum altitude 17:11:51 63° 240° (WSW) 874 4.1 -13.3°
Drops below altitude 10° 17:17:12 10° 161° (SSE) 2,342 6.0 -14.2°
Sets 17:19:38 0° 158° (SSE) 3,264 6.7 -14.6°
